Satellite: AUBIESAT Catalog number: 37854 Epoch time: 13163.54313628 Element set: 521 Inclination: 101.7174 deg RA of node: 015.8822 deg Eccentricity: 0.0235137 Arg of perigee: 039.4853 deg Mean anomaly: 017.6312 deg Mean motion: 14.84370899 rev/day Decay rate: 2.941e-05 rev/day^2 Epoch rev: 8777 Checksum: 307
Satellite: HRBE Catalog number: 37855 Epoch time: 13164.16457578 Element set: 520 Inclination: 101.7175 deg RA of node: 016.5575 deg Eccentricity: 0.0236145 Arg of perigee: 038.1644 deg Mean anomaly: 080.5417 deg Mean motion: 14.84038970 rev/day Decay rate: 2.380e-05 rev/day^2 Epoch rev: 8785 Checksum: 309
Satellite: RS-39 Catalog number: 38051 Epoch time: 13164.91561343 Element set: 532 Inclination: 051.6362 deg RA of node: 226.3684 deg Eccentricity: 0.0010917 Arg of perigee: 257.1805 deg Mean anomaly: 085.3526 deg Mean motion: 15.32667613 rev/day Decay rate: 8.578e-05 rev/day^2 Epoch rev: 7727 Checksum: 315
Satellite: E-STAR Catalog number: 38079 Epoch time: 13164.81325976 Element set: 208 Inclination: 069.4733 deg RA of node: 190.8151 deg Eccentricity: 0.0610988 Arg of perigee: 141.7743 deg Mean anomaly: 281.5005 deg Mean motion: 14.46716207 rev/day Decay rate: 3.1612e-04 rev/day^2 Epoch rev: 6925 Checksum: 311
Satellite: GOLIAT Catalog number: 38085 Epoch time: 13164.62110111 Element set: 121 Inclination: 069.4724 deg RA of node: 193.4200 deg Eccentricity: 0.0621363 Arg of perigee: 143.1461 deg Mean anomaly: 356.0025 deg Mean motion: 14.44567792 rev/day Decay rate: 3.7014e-04 rev/day^2 Epoch rev: 6916 Checksum: 262
Satellite: HORYU-2 Catalog number: 38340 Epoch time: 13164.09014551 Element set: 525 Inclination: 098.2149 deg RA of node: 111.7071 deg Eccentricity: 0.0011369 Arg of perigee: 267.8933 deg Mean anomaly: 092.0954 deg Mean motion: 14.70954482 rev/day Decay rate: 6.19e-06 rev/day^2 Epoch rev: 5751 Checksum: 298
Satellite: RS-40 Catalog number: 38736 Epoch time: 13164.04778398 Element set: 295 Inclination: 082.4776 deg RA of node: 157.7052 deg Eccentricity: 0.0021164 Arg of perigee: 339.8185 deg Mean anomaly: 020.2056 deg Mean motion: 12.42868573 rev/day Decay rate: 1.0e-07 rev/day^2 Epoch rev: 3973 Checksum: 315
Satellite: PROITERES Catalog number: 38756 Epoch time: 13164.85710280 Element set: 868 Inclination: 098.2532 deg RA of node: 241.8397 deg Eccentricity: 0.0013751 Arg of perigee: 114.2412 deg Mean anomaly: 246.0214 deg Mean motion: 14.74232956 rev/day Decay rate: 5.21e-06 rev/day^2 Epoch rev: 4090 Checksum: 284
Satellite: RAIKO Catalog number: 38852 Epoch time: 13164.28229029 Element set: 254 Inclination: 051.6374 deg RA of node: 108.5632 deg Eccentricity: 0.0009569 Arg of perigee: 022.6221 deg Mean anomaly: 337.5200 deg Mean motion: 15.79569186 rev/day Decay rate: 1.25467e-03 rev/day^2 Epoch rev: 3925 Checksum: 308
Satellite: FITSAT 1 Catalog number: 38853 Epoch time: 13164.84384705 Element set: 260 Inclination: 051.6365 deg RA of node: 099.5362 deg Eccentricity: 0.0005278 Arg of perigee: 059.7904 deg Mean anomaly: 300.3626 deg Mean motion: 15.94779693 rev/day Decay rate: 2.89465e-03 rev/day^2 Epoch rev: 3947 Checksum: 349
Satellite: TechEdSat Catalog number: 38854 Epoch time: 13124.93253577 Element set: 290 Inclination: 051.6449 deg RA of node: 297.0261 deg Eccentricity: 0.0010505 Arg of perigee: 310.8629 deg Mean anomaly: 049.0629 deg Mean motion: 16.38844728 rev/day Decay rate: 1.1592855e-01 rev/day^2 Epoch rev: 3329 Checksum: 325
Satellite: F 1 Catalog number: 38855 Epoch time: 13129.77714356 Element set: 287 Inclination: 051.5085 deg RA of node: 272.4145 deg Eccentricity: 0.0008326 Arg of perigee: 194.2908 deg Mean anomaly: 166.5495 deg Mean motion: 16.49710473 rev/day Decay rate: 2.7424026e-01 rev/day^2 Epoch rev: 3394 Checksum: 332
Satellite: WeWish Catalog number: 38856 Epoch time: 13069.98095549 Element set: 248 Inclination: 051.6166 deg RA of node: 215.0521 deg Eccentricity: 0.0008325 Arg of perigee: 316.0438 deg Mean anomaly: 044.8765 deg Mean motion: 16.41348316 rev/day Decay rate: 1.6701328e-01 rev/day^2 Epoch rev: 2458 Checksum: 318
Satellite: OSSI-1 Catalog number: 39131 Epoch time: 13113.49391669 Element set: 3 Inclination: 064.8913 deg RA of node: 019.7169 deg Eccentricity: 0.0213781 Arg of perigee: 058.2074 deg Mean anomaly: 115.1737 deg Mean motion: 15.55484603 rev/day Decay rate: 1.71511e-03 rev/day^2 Epoch rev: 63 Checksum: 287
Satellite: BEESAT-3 Catalog number: 39134 Epoch time: 13164.61235129 Element set: 140 Inclination: 064.8766 deg RA of node: 219.8016 deg Eccentricity: 0.0013825 Arg of perigee: 208.6131 deg Mean anomaly: 151.4194 deg Mean motion: 15.00320813 rev/day Decay rate: 2.909e-05 rev/day^2 Epoch rev: 829 Checksum: 272
Satellite: BEESAT-2 Catalog number: 39136 Epoch time: 13164.54561767 Element set: 139 Inclination: 064.8776 deg RA of node: 220.0118 deg Eccentricity: 0.0014129 Arg of perigee: 207.9025 deg Mean anomaly: 152.1337 deg Mean motion: 15.00295666 rev/day Decay rate: 2.659e-05 rev/day^2 Epoch rev: 828 Checksum: 298
/EX